FW6490 Weather Reports


time (UTC)temp
C
wind
direction
speed
KPH
gust
KPH
rain 1hr
cm
rain 24hr
cm
rain mn
cm
humidity
%
barometer
mb
20260904164129 21 5 0.0 1.6 0.00 0.00 0.00 80 1008.5
20260904163627 20 5 0.0 0.0 0.00 0.00 0.00 82 1008.5
20260904162128 20 348 0.0 6.4 0.00 0.00 0.00 83 1008.5
20260904161122 18 333 0.0 0.0 0.00 0.00 0.00 88 1008.5
20260904160622 18 333 0.0 0.0 0.00 0.00 0.00 88 1008.5
20260904155618 18 331 0.0 0.0 0.00 0.00 0.00 91 1008.5
20260904155114 18 331 0.0 0.0 0.00 0.00 0.00 91 1008.5
20260904154613 18 331 0.0 0.0 0.00 0.00 0.00 91 1008.5
20260904153605 18 331 0.0 0.0 0.00 0.00 0.00 92 1008.5
20260904153102 18 331 0.0 0.0 0.00 0.00 0.00 93 1008.5
20260904152559 18 321 0.0 0.0 0.00 0.00 0.00 94 1008.5
20260904152056 17 321 0.0 0.0 0.00 0.00 0.00 94 1008.5
20260904151552 17 321 0.0 0.0 0.00 0.00 0.00 94 1008.5
20260904150550 17 321 0.0 0.0 0.00 0.00 0.00 94 1008.5
20260904145045 17 321 0.0 0.0 0.00 0.00 0.00 94 1008.4
20260904144542 17 321 0.0 0.0 0.00 0.00 0.00 95 1008.4
20260904144043 17 321 0.0 0.0 0.00 0.00 0.00 95 1008.3
20260904143044 17 321 0.0 0.0 0.00 0.00 0.00 94 1008.3
20260904142038 17 321 0.0 0.0 0.00 0.00 0.00 94 1008.2
20260904141537 17 321 0.0 0.0 0.00 0.00 0.00 95 1008.2
20260904141037 17 321 0.0 0.0 0.00 0.00 0.00 95 1008.0
20260904140532 16 321 0.0 0.0 0.00 0.00 0.00 95 1007.9
20260904140032 16 321 0.0 0.0 0.00 0.00 0.00 94 1007.9
20260904135529 16 321 0.0 0.0 0.00 0.00 0.00 94 1007.9
20260904135029 16 321 0.0 0.0 0.00 0.00 0.00 94 1007.9
20260904134526 16 321 0.0 0.0 0.00 0.00 0.00 94 1007.9
20260904134030 16 321 0.0 0.0 0.00 0.00 0.00 94 1007.9
20260904133520 16 321 0.0 1.6 0.00 0.00 0.00 94 1007.9
20260904133016 17 321 0.0 1.6 0.00 0.00 0.00 94 1007.9
20260904132515 17 321 0.0 0.0 0.00 0.00 0.00 94 1007.8
20260904132007 17 321 0.0 0.0 0.00 0.00 0.00 94 1007.8
20260904131505 17 321 0.0 0.0 0.00 0.00 0.00 94 1007.8
20260904131000 17 321 0.0 0.0 0.00 0.00 0.00 94 1007.9
20260904130454 17 321 0.0 0.0 0.00 0.00 0.00 93 1007.9
20260904125951 17 321 0.0 0.0 0.00 0.00 0.00 93 1007.9
20260904124448 17 321 0.0 0.0 0.00 0.00 0.00 93 1007.6
20260904123441 17 321 0.0 0.0 0.00 0.00 0.00 93 1007.6
20260904122942 17 321 0.0 0.0 0.00 0.00 0.00 93 1007.6
20260904122438 17 321 0.0 0.0 0.00 0.00 0.00 93 1007.6
20260904121433 17 321 0.0 0.0 0.00 0.00 0.00 93 1007.6
20260904120928 17 321 0.0 0.0 0.00 0.00 0.00 93 1007.7
20260904120429 17 321 0.0 0.0 0.00 0.00 0.00 93 1007.7
20260904115924 17 321 0.0 0.0 0.00 0.00 0.00 93 1007.7
20260904114918 17 321 0.0 1.6 0.00 0.00 0.00 93 1007.7
20260904114415 17 321 0.0 1.6 0.00 0.00 0.00 93 1007.7
20260904113915 17 321 0.0 1.6 0.00 0.00 0.00 93 1007.8
20260904113415 17 321 0.0 0.0 0.00 0.00 0.00 93 1007.8
20260904112917 17 321 0.0 0.0 0.00 0.00 0.00 93 1007.8
20260904112408 17 321 0.0 0.0 0.00 0.00 0.00 93 1007.6
20260904110859 17 321 0.0 0.0 0.00 0.00 0.00 93 1007.6
20260904110400 17 321 0.0 0.0 0.00 0.00 0.00 93 1007.6
20260904105856 17 321 0.0 0.0 0.00 0.00 0.00 93 1007.5
20260904104349 17 321 0.0 3.2 0.00 0.00 0.00 93 1007.5
20260904103842 17 321 1.6 3.2 0.00 0.00 0.00 92 1007.5
20260904103339 17 321 0.0 3.2 0.00 0.00 0.00 92 1007.5
20260904102331 17 321 0.0 3.2 0.00 0.00 0.00 92 1007.5
20260904101827 17 321 0.0 0.0 0.00 0.00 0.00 92 1007.5
20260904101328 17 321 0.0 0.0 0.00 0.00 0.00 92 1007.5
20260904100822 17 321 0.0 0.0 0.00 0.00 0.00 92 1007.5
20260904100319 17 321 0.0 1.6 0.00 0.00 0.00 92 1007.5
20260904095820 17 321 0.0 1.6 0.00 0.00 0.00 92 1007.5
20260904095320 17 321 0.0 1.6 0.00 0.00 0.00 91 1007.5
20260904094824 17 321 0.0 3.2 0.00 0.00 0.00 91 1007.5
20260904094314 17 321 0.0 3.2 0.00 0.00 0.00 91 1007.5
20260904093816 17 321 0.0 4.8 0.00 0.00 0.00 91 1007.5
20260904093316 17 321 0.0 4.8 0.00 0.00 0.00 91 1007.5
20260904092305 17 321 0.0 1.6 0.00 0.00 0.00 91 1007.5
20260904091757 17 321 0.0 3.2 0.00 0.00 0.00 91 1007.5
20260904091258 17 321 0.0 3.2 0.00 0.00 0.00 91 1007.5
20260904090752 17 321 0.0 3.2 0.00 0.00 0.00 91 1007.5
20260904085753 17 321 0.0 3.2 0.00 0.00 0.00 90 1007.5
20260904084744 17 321 0.0 3.2 0.00 0.00 0.00 91 1007.5
20260904084244 17 321 0.0 0.0 0.00 0.00 0.00 91 1007.8
20260904083743 17 321 0.0 1.6 0.00 0.00 0.00 90 1007.8
20260904083243 17 321 0.0 1.6 0.00 0.00 0.00 90 1007.8
20260904082740 17 321 0.0 1.6 0.00 0.00 0.00 90 1007.9
20260904082243 17 321 0.0 1.6 0.00 0.00 0.00 90 1007.9
20260904081741 17 321 0.0 1.6 0.00 0.00 0.00 90 1007.9
20260904081233 17 321 0.0 1.6 0.00 0.00 0.00 90 1008.0
20260904080733 17 321 0.0 3.2 0.00 0.00 0.00 90 1008.0
20260904080233 17 321 0.0 3.2 0.00 0.00 0.00 90 1008.0
20260904075724 17 321 0.0 1.6 0.00 0.00 0.00 90 1008.0
20260904075218 17 321 0.0 1.6 0.00 0.00 0.00 90 1008.0
20260904074718 17 321 0.0 1.6 0.00 0.00 0.00 90 1008.0
20260904073714 17 321 1.6 4.8 0.00 0.00 0.00 90 1008.0
20260904073213 17 321 1.6 4.8 0.00 0.00 0.00 90 1008.0
20260904072707 17 321 0.0 4.8 0.00 0.00 0.00 90 1008.0
20260904072208 17 320 0.0 0.0 0.00 0.00 0.00 90 1008.0
20260904071708 17 320 0.0 0.0 0.00 0.00 0.00 90 1008.0
20260904071206 17 320 0.0 0.0 0.00 0.00 0.00 89 1008.0
20260904070203 17 320 0.0 0.0 0.00 0.00 0.00 89 1008.0
20260904065154 17 320 0.0 0.0 0.00 0.00 0.00 89 1008.0
20260904064152 17 320 0.0 0.0 0.00 0.00 0.00 89 1008.0
20260904063650 17 320 0.0 0.0 0.00 0.00 0.00 89 1008.0
20260904063146 17 320 0.0 0.0 0.00 0.00 0.00 89 1008.0
20260904062648 17 320 0.0 0.0 0.00 0.00 0.00 89 1008.0
20260904062145 17 319 0.0 0.0 0.00 0.00 0.00 89 1008.0
20260904061651 17 319 0.0 0.0 0.00 0.00 0.00 89 1008.0
20260904060638 17 319 0.0 0.0 0.00 0.00 0.00 89 1008.0
20260904060138 17 319 0.0 0.0 0.00 0.00 0.00 89 1008.0
20260904055638 17 319 0.0 0.0 0.00 0.00 0.00 89 1008.0
20260904054631 17 319 0.0 0.0 0.00 0.00 0.00 89 1008.0
20260904054134 17 319 0.0 0.0 0.00 0.00 0.00 89 1007.9
20260904053630 17 319 0.0 1.6 0.00 0.00 0.00 89 1007.9
20260904053128 17 316 0.0 3.2 0.00 0.00 0.00 89 1008.0
20260904052628 17 315 0.0 3.2 0.00 0.00 0.00 89 1008.0
20260904052126 17 292 0.0 4.8 0.00 0.00 0.00 89 1008.0
20260904051625 17 292 0.0 4.8 0.00 0.00 0.00 89 1008.0
20260904045618 16 290 0.0 0.0 0.00 0.00 0.00 89 1007.9
20260904045117 16 290 0.0 0.0 0.00 0.00 0.00 89 1007.9
20260904044616 16 290 0.0 0.0 0.00 0.00 0.00 89 1007.9
20260904044113 16 290 0.0 0.0 0.00 0.00 0.00 89 1007.9
20260904043609 16 290 0.0 4.8 0.00 0.00 0.00 89 1007.9
20260904043107 16 290 0.0 4.8 0.00 0.00 0.00 89 1007.9
20260904042602 16 290 0.0 3.2 0.00 0.00 0.00 89 1007.9
20260904042100 16 290 0.0 3.2 0.00 0.00 0.00 89 1007.9
20260904041058 16 290 0.0 3.2 0.00 0.00 0.00 89 1007.8
20260904040552 16 290 1.6 3.2 0.00 0.00 0.00 89 1007.8
20260904040047 16 290 1.6 4.8 0.00 0.00 0.00 89 1007.8
20260904035548 16 290 0.0 4.8 0.00 0.00 0.00 88 1007.5
20260904034042 16 290 1.6 4.8 0.00 0.00 0.00 87 1007.4
20260904033541 16 290 0.0 4.8 0.00 0.00 0.00 87 1007.4
20260904033040 16 290 0.0 4.8 0.00 0.00 0.00 87 1007.4
20260904032034 16 290 1.6 6.4 0.00 0.00 0.00 86 1007.4
20260904031535 16 290 1.6 3.2 0.00 0.00 0.00 86 1007.4
20260904031035 16 290 1.6 6.4 0.00 0.00 0.00 86 1007.4
20260904025023 17 279 3.2 6.4 0.00 0.00 0.00 85 1007.4
20260904024522 17 281 4.8 11.3 0.00 0.00 0.00 85 1007.4
20260904024027 17 282 4.8 11.3 0.00 0.00 0.00 84 1007.4
20260904023521 17 314 4.8 11.3 0.00 0.00 0.00 84 1007.4
20260904023021 17 301 6.4 11.3 0.00 0.00 0.00 84 1007.4
20260904022524 17 294 6.4 12.9 0.00 0.00 0.00 83 1007.3
20260904021018 17 309 6.4 14.5 0.00 0.00 0.00 82 1007.2
20260904020516 17 303 6.4 14.5 0.00 0.00 0.00 81 1007.2
20260904015513 18 288 6.4 14.5 0.00 0.00 0.00 80 1007.2
20260904014505 18 281 6.4 14.5 0.00 0.00 0.00 79 1007.2
20260904014007 18 309 6.4 14.5 0.00 0.00 0.00 78 1007.3
20260904013502 18 279 6.4 12.9 0.00 0.00 0.00 78 1007.3
20260904012959 18 284 6.4 17.7 0.00 0.00 0.00 77 1007.3
20260904012458 19 295 6.4 16.1 0.00 0.00 0.00 76 1007.4
20260904011956 19 275 6.4 16.1 0.00 0.00 0.00 75 1007.4
20260904011458 19 306 8.0 16.1 0.00 0.00 0.00 75 1007.4
20260904010956 20 307 8.0 17.7 0.00 0.00 0.00 74 1007.5
20260904010457 20 313 8.0 19.3 0.00 0.00 0.00 74 1007.5
20260904005956 20 275 8.0 22.5 0.00 0.00 0.00 73 1007.5
20260904005454 20 293 8.0 22.5 0.00 0.00 0.00 71 1007.5
20260904004958 21 312 6.4 17.7 0.00 0.00 0.00 69 1007.5
20260904003950 21 311 6.4 12.9 0.00 0.00 0.00 66 1007.6
20260904002948 21 315 6.4 16.1 0.00 0.00 0.00 67 1007.6
20260904002447 21 303 8.0 17.7 0.00 0.00 0.00 67 1007.6
20260904001946 21 315 8.0 17.7 0.00 0.00 0.00 67 1007.6
20260904001445 21 324 8.0 17.7 0.00 0.00 0.00 68 1007.6
20260904000941 21 312 8.0 17.7 0.00 0.00 0.00 67 1007.6
20260904000444 21 311 8.0 17.7 0.00 0.00 0.00 68 1007.6
20260903235942 22 301 8.0 17.7 0.00 0.00 0.00 66 1007.6
20260903235441 22 0 8.0 16.1 0.00 0.00 0.00 65 1007.8
20260903234940 22 321 8.0 16.1 0.00 0.00 0.00 66 1007.8
20260903234439 22 319 8.0 16.1 0.00 0.00 0.00 66 1007.8
20260903233936 22 323 8.0 17.7 0.00 0.00 0.00 67 1007.8
20260903232934 22 302 9.7 22.5 0.00 0.00 0.00 65 1007.8
20260903231436 22 303 8.0 19.3 0.00 0.00 0.00 64 1008.0
20260903230940 22 58 8.0 17.7 0.00 0.00 0.00 65 1008.0
20260903230434 22 309 8.0 19.3 0.00 0.00 0.00 64 1008.0
20260903225930 22 312 8.0 19.3 0.00 0.00 0.00 62 1008.0
20260903224929 22 298 8.0 19.3 0.00 0.00 0.00 65 1008.1
20260903224431 22 321 9.7 20.9 0.00 0.00 0.00 63 1008.1
20260903223927 22 0 9.7 20.9 0.00 0.00 0.00 63 1008.1
20260903222424 22 305 11.3 20.9 0.00 0.00 0.00 62 1008.1
20260903221921 23 294 9.7 20.9 0.00 0.00 0.00 62 1008.1
20260903221416 23 326 9.7 20.9 0.00 0.00 0.00 62 1008.1
20260903220917 23 335 9.7 19.3 0.00 0.00 0.00 62 1008.3
20260903220416 23 305 8.0 19.3 0.00 0.00 0.00 61 1008.3
20260903215915 23 338 9.7 19.3 0.00 0.00 0.00 62 1008.3
20260903215413 23 322 9.7 19.3 0.00 0.00 0.00 62 1008.6
20260903214910 22 304 11.3 20.9 0.00 0.00 0.00 63 1008.6
20260903214407 22 310 11.3 20.9 0.00 0.00 0.00 62 1008.6
20260903213906 23 311 8.0 19.3 0.00 0.00 0.00 61 1008.6
20260903213404 23 319 8.0 16.1 0.00 0.00 0.00 60 1008.6
20260903212403 23 308 9.7 19.3 0.00 0.00 0.00 60 1008.5
20260903211901 23 320 8.0 19.3 0.00 0.00 0.00 60 1008.5
20260903211357 24 338 8.0 17.7 0.00 0.00 0.00 60 1008.6
20260903210858 24 313 8.0 19.3 0.00 0.00 0.00 61 1008.6
20260903210356 23 351 8.0 19.3 0.00 0.00 0.00 61 1008.6
20260903205854 24 323 8.0 17.7 0.00 0.00 0.00 60 1008.6
20260903205351 23 312 8.0 20.9 0.00 0.00 0.00 61 1008.6
20260903204848 24 334 8.0 20.9 0.00 0.00 0.00 60 1008.6
20260903203847 24 329 8.0 19.3 0.00 0.00 0.00 58 1008.6
20260903203344 24 341 6.4 16.1 0.00 0.00 0.00 59 1008.6
20260903201844 23 316 8.0 16.1 0.00 0.00 0.00 60 1008.6
20260903201342 24 327 8.0 17.7 0.00 0.00 0.00 60 1008.6
20260903200843 24 313 8.0 17.7 0.00 0.00 0.00 58 1008.6
20260903195843 24 5 8.0 17.7 0.00 0.00 0.00 59 1008.9
20260903195340 24 317 8.0 17.7 0.00 0.00 0.00 59 1008.9
20260903194842 24 312 6.4 17.7 0.00 0.00 0.00 59 1008.9
20260903194338 24 311 6.4 14.5 0.00 0.00 0.00 59 1009.0
20260903193839 24 322 6.4 14.5 0.00 0.00 0.00 59 1009.0
20260903193335 23 305 8.0 20.9 0.00 0.00 0.00 60 1009.0
20260903191828 23 318 8.0 19.3 0.00 0.00 0.00 61 1009.1
20260903190322 23 325 8.0 16.1 0.00 0.00 0.00 62 1009.2
20260903185820 23 22 8.0 16.1 0.00 0.00 0.00 62 1009.3
20260903184318 23 315 8.0 20.9 0.00 0.00 0.00 62 1009.6
20260903183318 23 318 6.4 17.7 0.00 0.00 0.00 62 1009.6
20260903182816 23 320 6.4 14.5 0.00 0.00 0.00 64 1009.6
20260903182312 22 311 6.4 12.9 0.00 0.00 0.00 62 1009.6
20260903181811 22 337 6.4 14.5 0.00 0.00 0.00 62 1009.6
20260903181307 23 309 6.4 14.5 0.00 0.00 0.00 60 1009.7
20260903180804 23 321 6.4 12.9 0.00 0.00 0.00 59 1009.7
20260903180305 23 355 4.8 12.9 0.00 0.00 0.00 59 1009.7
20260903175804 23 13 4.8 9.7 0.00 0.00 0.00 61 1009.7
20260903174759 23 309 4.8 9.7 0.00 0.00 0.00 61 1009.7
20260903174259 22 344 3.2 11.3 0.00 0.00 0.00 62 1009.7
20260903173755 22 334 4.8 11.3 0.00 0.00 0.00 63 1009.7
20260903173251 22 328 3.2 9.7 0.00 0.00 0.00 63 1009.7
20260903172750 22 329 4.8 12.9 0.00 0.00 0.00 64 1009.8
20260903172250 22 327 4.8 12.9 0.00 0.00 0.00 64 1009.7
20260903171751 21 340 3.2 9.7 0.00 0.00 0.00 66 1009.7
20260903171248 21 333 3.2 8.0 0.00 0.00 0.00 68 1009.7
20260903170747 20 333 4.8 8.0 0.00 0.00 0.00 68 1009.7
20260903170246 20 334 4.8 9.7 0.00 0.00 0.00 70 1009.7
20260903165745 20 334 4.8 9.7 0.00 0.00 0.00 71 1010.0
20260903164743 20 317 3.2 8.0 0.00 0.00 0.00 70 1010.0
20260903164242 20 322 3.2 8.0 0.00 0.00 0.00 73 1010.1